Fredericksburg, VA

5:13 AM EDT on May 23, 2017 (GMT -0400)
Shannon

Weather History for KEZF - October, 2012

Change the Weather History Date:

Saturday, October 20, 2012

  Actual Average (KNYG) Record (KNYG)
Temperature  
Mean Temperature 58 °F -  
Max Temperature 71 °F 63 °F 82 °F (2016)
Min Temperature 46 °F 44 °F 34 °F (2008)
Degree Days  
Heating Degree Days 6    
Growing Degree Days 8 (Base 50)    
Moisture  
Dew Point 46 °F    
Average Humidity 68    
Maximum Humidity 100    
Minimum Humidity 36    
Precipitation  
Precipitation 0.00 in - - ()
Sea Level Pressure  
Sea Level Pressure 29.79 in    
Wind  
Wind Speed 3 mph (West)    
Max Wind Speed 9 mph    
Max Gust Speed -    
Visibility 10 miles    
Events      
Averages and records for this station are not official NWS values.
T = Trace of Precipitation, MM = Missing Value Source: NWS Daily Summary

Daily Weather History Graph

Daily Weather History Graph

Search for Another Location

Airport or City:

Trip Planner

Search our weather history database for the weather conditions in past years. The results will help you decide how hot, cold, wet, or windy it might be!

Date:

Astronomy

Oct. 20, 2012 Rise Set
Actual Time 7:24 AM EDT 6:24 PM EDT
Civil Twilight 6:57 AM EDT 6:51 PM EDT
Nautical Twilight 6:26 AM EDT 7:21 PM EDT
Astronomical Twilight 5:55 AM EDT 7:52 PM EDT
Moon 12:55 PM EDT (10/20) 11:10 PM EDT (10/20)
Length of Visible Light 11h 53m
Length of Day
11h 00m
Waxing Crescent, 34% of the Moon is Illuminated
Oct 20
Waxing Crescent
Oct 21
First Quarter
Oct 29
Full
Nov 6
Last Quarter
Nov 13
New

Hourly Weather History & Observations

Time (EDT) Temp. Dew Point Humidity Pressure Visibility Wind Dir Wind Speed Gust Speed Precip Events Conditions
12:15 AM 62.4 °F 45.1 °F 53% 29.68 in 10.0 mi SW 9.2 mph - N/A   Clear
12:35 AM 61.9 °F 45.0 °F 54% 29.69 in 10.0 mi SSW 3.5 mph - N/A   Clear
12:55 AM 58.3 °F 46.6 °F 65% 29.69 in 10.0 mi South 5.8 mph - N/A   Clear
1:15 AM 55.9 °F 48.4 °F 76% 29.69 in 10.0 mi Calm Calm - N/A   Clear
1:35 AM 54.5 °F 48.4 °F 80% 29.69 in 10.0 mi Calm Calm - N/A   Scattered Clouds
1:55 AM 52.5 °F 48.0 °F 85% 29.69 in 10.0 mi Calm Calm - N/A   Clear
2:15 AM 52.5 °F 48.6 °F 86% 29.69 in 10.0 mi ESE 5.8 mph - N/A   Clear
2:35 AM 51.8 °F 48.9 °F 90% 29.68 in 10.0 mi SE 3.5 mph - N/A   Clear
2:55 AM 51.8 °F 49.5 °F 92% 29.69 in 10.0 mi SE 3.5 mph - N/A   Clear
3:15 AM 50.2 °F 48.6 °F 94% 29.70 in 10.0 mi SE 3.5 mph - N/A   Clear
3:35 AM 50.4 °F 49.1 °F 95% 29.70 in 10.0 mi Calm Calm - N/A   Clear
3:55 AM 49.3 °F 47.7 °F 94% 29.70 in 10.0 mi Calm Calm - N/A   Clear
4:15 AM 48.9 °F 48.2 °F 97% 29.71 in 10.0 mi Calm Calm - N/A   Clear
4:35 AM 48.7 °F 48.0 °F 97% 29.71 in 10.0 mi Calm Calm - N/A   Clear
4:55 AM 49.6 °F 49.3 °F 99% 29.73 in 10.0 mi North 5.8 mph - N/A   Clear
5:15 AM 48.7 °F 47.8 °F 97% 29.73 in 10.0 mi Calm Calm - N/A   Clear
5:35 AM 46.9 °F 46.0 °F 97% 29.75 in 10.0 mi Calm Calm - N/A   Scattered Clouds
5:55 AM 47.7 °F 47.5 °F 99% 29.75 in 10.0 mi Calm Calm - N/A   Clear
6:15 AM 47.3 °F 47.1 °F 99% 29.75 in 10.0 mi Calm Calm - N/A   Clear
6:35 AM 47.1 °F 46.9 °F 99% 29.75 in 10.0 mi Calm Calm - N/A   Clear
6:55 AM 47.3 °F 47.3 °F 100% 29.76 in 10.0 mi Calm Calm - N/A   Clear
7:15 AM 46.6 °F 46.6 °F 100% 29.76 in 10.0 mi Calm Calm - N/A   Clear
7:35 AM 46.4 °F 46.4 °F 100% 29.77 in 10.0 mi Calm Calm - N/A   Scattered Clouds
7:55 AM 46.9 °F 46.9 °F 100% 29.78 in 10.0 mi Calm Calm - N/A   Clear
8:15 AM 48.0 °F 48.0 °F 100% 29.79 in 10.0 mi Calm Calm - N/A   Clear
8:35 AM 49.5 °F 48.9 °F 98% 29.78 in 10.0 mi Calm Calm - N/A   Clear
8:55 AM 52.0 °F 50.0 °F 93% 29.79 in 10.0 mi Calm Calm - N/A   Clear
9:15 AM 54.7 °F 50.9 °F 87% 29.79 in 10.0 mi Calm Calm - N/A   Clear
9:35 AM 57.6 °F 50.2 °F 76% 29.79 in 10.0 mi Calm Calm - N/A   Scattered Clouds
9:55 AM 59.4 °F 50.0 °F 71% 29.80 in 10.0 mi Calm Calm - N/A   Scattered Clouds
10:15 AM 61.3 °F 48.0 °F 62% 29.80 in 10.0 mi Calm Calm - N/A   Clear
10:35 AM 63.3 °F 47.1 °F 56% 29.80 in 10.0 mi Calm Calm - N/A   Clear
10:55 AM 63.7 °F 45.3 °F 51% 29.80 in 10.0 mi Calm Calm - N/A   Clear
11:15 AM 64.9 °F 46.6 °F 51% 29.81 in 10.0 mi SW 3.5 mph - N/A   Clear
11:35 AM 66.0 °F 46.4 °F 49% 29.80 in 10.0 mi SW 4.6 mph - N/A   Clear
11:55 AM 67.8 °F 47.7 °F 48% 29.79 in 10.0 mi Calm Calm - N/A   Clear
12:15 PM 68.0 °F 45.5 °F 44% 29.78 in 10.0 mi SSW 5.8 mph - N/A   Clear
12:35 PM 68.7 °F 46.0 °F 44% 29.78 in 10.0 mi Calm Calm - N/A   Clear
12:55 PM 69.6 °F 43.9 °F 39% 29.77 in 10.0 mi West 6.9 mph - N/A   Clear
1:15 PM 69.8 °F 43.5 °F 39% 29.77 in 10.0 mi WNW 8.1 mph - N/A   Scattered Clouds
1:35 PM 71.1 °F 43.3 °F 37% 29.76 in 10.0 mi WSW 9.2 mph - N/A   Scattered Clouds
1:55 PM 69.4 °F 42.3 °F 37% 29.76 in 10.0 mi SSE 3.5 mph - N/A   Scattered Clouds
2:15 PM 70.5 °F 43.0 °F 37% 29.75 in 10.0 mi SW 5.8 mph - N/A   Scattered Clouds
2:35 PM 70.7 °F 42.6 °F 36% 29.75 in 10.0 mi West 8.1 mph - N/A   Scattered Clouds
2:55 PM 69.3 °F 42.6 °F 38% 29.76 in 10.0 mi West 6.9 mph - N/A   Scattered Clouds
3:15 PM 69.3 °F 42.8 °F 38% 29.76 in 10.0 mi West 9.2 mph - N/A   Mostly Cloudy
3:35 PM 70.0 °F 43.3 °F 38% 29.76 in 10.0 mi West 8.1 mph - N/A   Scattered Clouds
3:55 PM 68.9 °F 42.6 °F 39% 29.76 in 10.0 mi NW 6.9 mph - N/A   Mostly Cloudy
4:15 PM 69.4 °F 42.6 °F 38% 29.77 in 10.0 mi NW 4.6 mph - N/A   Scattered Clouds
4:35 PM 68.9 °F 41.9 °F 37% 29.78 in 10.0 mi West 8.1 mph - N/A   Scattered Clouds
4:55 PM 68.5 °F 42.4 °F 39% 29.79 in 10.0 mi WNW 6.9 mph - N/A   Mostly Cloudy
5:15 PM 69.4 °F 41.2 °F 36% 29.79 in 10.0 mi West 9.2 mph - N/A   Mostly Cloudy
5:35 PM 68.2 °F 41.0 °F 37% 29.80 in 10.0 mi West 6.9 mph - N/A   Scattered Clouds
5:55 PM 67.8 °F 41.2 °F 38% 29.81 in 10.0 mi WNW 6.9 mph - N/A   Clear
6:15 PM 65.8 °F 42.6 °F 43% 29.81 in 10.0 mi West 4.6 mph - N/A   Scattered Clouds
6:35 PM 62.8 °F 45.0 °F 52% 29.82 in 10.0 mi NNW 5.8 mph - N/A   Scattered Clouds
6:55 PM 63.7 °F 44.4 °F 50% 29.83 in 10.0 mi NNW 4.6 mph - N/A   Scattered Clouds
7:15 PM 62.6 °F 44.6 °F 52% 29.85 in 10.0 mi NNW 4.6 mph - N/A   Clear
7:35 PM 61.7 °F 43.7 °F 52% 29.86 in 10.0 mi NNW 3.5 mph - N/A   Clear
7:55 PM 61.2 °F 43.9 °F 53% 29.86 in 10.0 mi NNW 4.6 mph - N/A   Clear
8:15 PM 59.9 °F 43.3 °F 54% 29.87 in 10.0 mi Calm Calm - N/A   Scattered Clouds
8:35 PM 55.0 °F 46.0 °F 72% 29.87 in 10.0 mi Calm Calm - N/A   Clear
8:55 PM 54.5 °F 45.7 °F 72% 29.88 in 10.0 mi West 3.5 mph - N/A   Scattered Clouds
9:15 PM 53.1 °F 45.7 °F 76% 29.88 in 10.0 mi Calm Calm - N/A   Clear
9:35 PM 52.3 °F 44.8 °F 75% 29.90 in 10.0 mi Calm Calm - N/A   Clear
9:55 PM 52.2 °F 45.5 °F 78% 29.90 in 10.0 mi Calm Calm - N/A   Scattered Clouds
10:15 PM 51.1 °F 45.0 °F 80% 29.91 in 10.0 mi Calm Calm - N/A   Scattered Clouds
10:35 PM 50.2 °F 45.0 °F 82% 29.92 in 10.0 mi Calm Calm - N/A   Mostly Cloudy
10:55 PM 50.4 °F 45.5 °F 83% 29.93 in 10.0 mi Calm Calm - N/A   Mostly Cloudy
11:15 PM 50.0 °F 45.7 °F 85% 29.93 in 10.0 mi Calm Calm - N/A   Scattered Clouds
11:35 PM 48.9 °F 45.1 °F 87% 29.94 in 10.0 mi Calm Calm - N/A   Clear
11:55 PM 49.3 °F 45.5 °F 87% 29.94 in 10.0 mi Calm Calm - N/A   Clear